KUIPER-00590

导读

KUIPER-00590(NORAD编号69276)是美国亚马逊公司“柯伊伯(Project Kuiper)”低轨互联网星座的组成卫星,于2025年10月随SpaceX猎鹰9号火箭执行的KF-03任务发射升空。该卫星运行于约630公里高度的低地球轨道,轨道倾角约51.9度,轨道周期约97分钟,当前处于在轨运行状态。作为柯伊伯星座的组网卫星,其核心功能是提供高带宽、低延迟的互联网通信服务,重点覆盖偏远乡村、海上等网络接入薄弱区域,同时可向企业、政府机构提供定制化通信支持,服务于全球数字化连接目标。

基本信息
目录编号:
69276
目录名称:
KUIPER-00590
国际标识:
2026-118K
轨道中心:
EARTH
卫星名称:
KUIPER-00590
卫星全名:
KUIPER-00590
卫星状态:
在轨 (已飞行59 天)
发射日期:
2026-05-29 UTC
国别 :
美国 (US)
星等 :
--
轨道信息
数据来源 国际轨道数据
星历时间: 2026-07-27T22:00:02+0800
8小时前
查看轨道信息
半长轴: 6980.076km
偏心率: 0.0001908
轨道倾角: 51.896°
近地点辐角 344.892°
升交点赤经 222.193°
平近点角 253.115°
近地点: 600.607km
远地点: 603.271km
周期: 96.727分钟
每日圈数: 14.887186
详细信息
使用方式:
暂无
2D轨道图
3D轨道图
轨道高度分析图
轨道倾角分析图
轨道综合分析图
查看轨道综合分析图